Wind_Speed
9 9 9 9 9 9 9 11 10 9 5 4 3 4 3 3 2 0 1 2 3 3 3 3 3 3 2 1 1 1 2 3 4 6 6 7 7 8 8 9 9 9 10 10 10 10 9 8 8
12 12 12 11 10 11 12 12 13 10 8 7 5 4 5 3 3 2 3 3 3 3 4 4 3 3 2 2 2 2 3 4 5 6 7 8 8 9 9 10 10 10 11 11 11 11 10 10 9
15 14 14 13 11 12 15 14 13 12 11 9 7 6 5 5 4 4 4 4 3 3 3 4 3 3 3 3 3 3 4 5 6 7 8 8 9 10 10 10 11 12 12 12 12 12 11 11 10
17 17 16 14 13 14 16 15 14 12 12 9 7 7 7 5 5 4 4 3 3 3 3 3 3 3 3 4 4 5 5 6 7 8 9 9 10 10 11 12 12 13 13 13 13 12 12 12 11
19 18 17 15 16 17 18 19 17 15 12 10 8 7 8 5 5 4 3 3 2 2 2 3 3 4 4 5 5 6 7 7 8 9 10 11 12 12 13 13 14 15 15 15 14 14 14 13 12
21 19 18 16 17 19 20 21 19 20 18 13 9 11 8 6 5 5 4 3 2 2 3 4 4 5 6 7 7 8 9 10 11 12 13 13 14 15 15 16 16 17 17 17 17 16 15 15 14
21 20 18 16 17 19 19 20 21 21 23 19 12 9 9 8 7 6 5 3 3 4 5 5 6 7 8 9 9 10 11 12 13 14 15 16 17 17 17 17 18 18 18 18 18 18 17 16 16
20 19 18 17 19 19 19 20 21 22 23 20 14 11 10 10 10 9 6 4 4 5 7 7 8 9 10 11 11 12 13 14 15 16 17 17 18 19 18 19 18 19 20 20 20 19 19 18 18
18 17 17 18 20 20 20 21 23 24 23 22 16 11 13 11 10 10 7 5 5 7 8 9 10 11 11 12 13 13 14 15 16 16 17 17 18 18 19 19 19 19 20 20 20 20 20 21 20
13 13 15 18 20 21 21 22 24 24 24 24 18 12 12 12 10 10 8 5 6 7 8 10 11 12 13 13 14 15 15 15 16 16 16 16 15 16 17 18 18 19 19 19 20 20 19 20 21
8 8 11 14 17 20 21 24 24 24 25 21 16 14 11 12 11 10 8 5 6 7 8 9 11 12 13 13 14 14 14 14 14 14 14 15 15 16 16 16 17 17 17 17 18 19 19 19 20
7 5 7 12 15 18 20 22 23 23 24 20 17 15 13 13 12 10 8 6 6 7 9 9 10 11 12 13 13 12 12 12 13 13 13 14 14 14 14 15 15 15 15 16 16 17 18 18 19
8 5 5 9 13 16 19 20 21 21 20 20 19 17 14 13 13 12 8 6 6 8 9 9 9 10 10 10 10 10 10 11 11 12 13 13 13 13 14 14 15 14 14 15 15 16 16 17 18
11 11 9 9 12 14 16 18 19 20 19 18 18 17 15 13 12 11 8 6 6 7 8 8 8 8 8 8 8 8 8 9 10 11 12 12 13 13 13 14 14 14 14 14 15 15 16 17 18
12 12 12 12 12 12 13 14 15 15 15 17 17 15 16 12 11 10 10 7 6 6 7 8 9 9 8 7 7 8 7 8 10 11 11 12 12 13 13 13 13 13 13 13 14 14 15 16 17
12 12 13 13 13 12 11 12 13 15 15 15 13 13 13 11 10 10 9 7 6 6 7 8 8 8 8 8 8 7 7 8 10 11 11 12 12 12 12 12 12 12 12 13 13 13 14 15 16
13 14 15 13 12 13 12 12 12 13 11 8 6 7 9 10 10 9 9 6 6 5 6 7 7 7 7 7 7 7 7 8 9 10 10 10 10 10 10 10 11 11 11 12 12 13 14 14 15
15 16 16 15 14 13 13 12 13 13 10 7 4 2 6 7 8 8 8 7 6 5 5 6 6 5 6 7 6 6 6 7 8 9 9 9 10 10 10 10 10 10 11 11 11 12 13 14 15
16 17 17 16 15 15 15 14 13 11 8 7 4 2 2 4 6 7 8 7 6 5 4 4 4 4 5 6 6 6 6 7 8 8 9 10 10 11 11 10 10 11 11 11 11 12 12 13 14
15 15 16 16 15 16 15 14 13 10 8 7 5 2 1 3 4 6 7 5 4 4 3 3 3 3 4 4 5 5 6 7 8 9 9 10 11 11 11 11 11 12 12 13 13 13 13 13 14
14 14 15 15 15 14 13 10 11 10 8 8 7 5 4 4 5 5 4 4 4 3 3 2 2 2 3 4 5 6 6 7 8 9 10 11 12 12 12 12 12 13 13 13 14 14 14 14 15
13 13 14 14 14 15 11 7 8 9 8 9 8 7 6 5 5 4 4 5 4 3 2 1 1 1 2 3 4 6 7 8 9 10 11 12 13 13 14 13 14 14 14 15 15 15 16 16 16
13 13 12 12 13 12 8 5 7 7 9 10 9 8 8 6 5 4 4 4 2 2 2 2 2 1 2 3 4 6 7 9 10 11 12 13 13 14 15 15 16 16 17 17 17 17 17 18 18
12 11 10 10 11 10 5 4 6 7 8 10 9 8 7 6 5 4 3 2 1 1 2 2 1 1 2 3 5 6 8 9 11 11 12 13 14 15 16 17 17 18 18 18 19 20 20 20 21
12 12 11 10 10 10 6 3 4 6 7 8 8 7 7 6 5 4 3 2 2 2 2 2 2 2 3 4 5 7 8 10 11 12 13 14 15 16 17 18 19 19 20 21 21 22 22 23 23
11 13 12 12 11 11 7 2 2 4 5 6 6 6 5 5 4 4 3 2 1 2 2 2 2 3 4 5 6 8 9 10 12 13 14 14 15 17 18 19 20 21 22 23 24 24 25 25 26
13 13 13 13 11 10 7 3 2 1 3 4 4 3 3 3 3 2 1 0 1 2 3 3 3 4 5 7 8 9 10 11 12 13 14 15 16 17 19 20 22 23 24 25 26 27 28 28 29
14 14 14 14 13 10 5 2 3 3 1 1 1 2 2 2 2 2 2 2 2 3 4 4 4 5 7 8 9 11 12 12 14 15 16 17 18 19 21 23 24 25 26 27 28 29 30 31 31
17 18 17 15 14 12 10 8 7 7 5 3 1 1 2 2 3 3 3 3 3 4 4 5 6 7 8 10 11 12 13 14 16 17 18 19 20 21 23 25 26 28 29 29 30 32 32 33 33
18 18 17 16 16 15 14 11 9 9 8 6 4 5 5 4 4 4 4 4 4 5 6 7 8 9 11 12 13 14 15 16 17 18 19 21 22 23 25 27 28 29 30 31 32 33 34 34 34
Wind_Direction
295 292 289 290 293 291 289 292 279 264 238 228 232 282 310 317 312 261 237 225 206 177 169 174 172 168 171 181 202 247 282 298 303 304 303 304 307 309 313 314 313 312 312 313 314 315 318 322 327
292 289 287 288 290 288 286 281 281 260 244 226 218 240 265 280 272 244 238 231 208 180 175 181 183 178 188 209 229 250 273 285 291 294 293 294 296 298 301 303 303 303 303 303 305 305 307 311 316
288 287 286 289 291 283 282 282 286 266 247 222 202 207 230 248 253 244 236 226 202 183 190 200 203 205 216 232 242 253 270 280 285 288 289 290 291 292 294 296 296 297 298 297 297 297 298 302 306
286 285 285 288 287 277 284 287 284 274 255 222 197 201 213 234 240 243 233 221 205 198 203 218 226 236 242 247 253 261 269 277 282 286 285 285 287 288 289 291 292 293 294 294 293 293 293 295 296
284 282 283 285 282 275 284 293 293 281 271 246 216 212 207 212 229 233 230 227 222 227 234 249 256 262 268 273 276 277 279 282 285 286 286 285 286 286 286 287 288 289 289 288 287 287 287 288 289
281 279 278 280 279 278 284 292 296 294 289 265 224 195 201 190 199 219 225 229 246 260 274 280 280 280 280 281 283 283 283 286 286 286 285 286 288 288 285 283 285 286 286 284 281 280 282 282 282
278 277 273 270 265 269 282 293 297 297 297 289 264 220 208 197 187 199 217 220 254 275 283 288 286 284 282 282 284 284 285 286 287 287 286 285 287 286 283 280 282 281 282 283 279 275 275 277 277
277 273 266 260 254 261 273 284 290 292 293 294 289 263 231 206 194 196 212 234 262 281 287 291 288 287 287 286 285 285 286 287 288 288 286 286 286 285 282 280 278 279 279 279 277 273 271 272 273
280 270 257 246 247 254 266 277 283 287 287 290 290 270 253 229 202 194 204 233 261 274 280 285 285 284 285 284 284 284 285 287 287 286 287 289 287 284 282 279 277 279 280 276 274 271 270 268 268
282 267 251 241 246 255 264 272 278 283 283 286 281 282 253 236 221 209 204 225 259 271 276 279 280 280 281 281 281 283 285 286 286 285 289 290 289 288 284 281 279 279 278 275 273 270 269 265 263
300 274 251 241 249 260 267 270 276 282 284 283 273 271 251 243 242 241 227 229 255 271 276 278 281 283 284 283 284 287 288 287 287 289 291 290 289 288 285 285 284 283 278 276 274 270 268 264 261
345 312 265 252 258 267 271 273 277 282 282 280 273 262 256 256 251 242 233 234 253 269 275 277 278 281 281 282 284 287 288 289 292 293 293 294 294 294 292 288 285 284 281 276 274 271 269 265 262
19 1 303 279 276 279 279 279 277 281 283 280 274 261 256 253 241 247 248 248 262 269 272 275 278 279 280 281 282 286 289 290 293 295 297 300 301 300 296 292 290 287 282 278 275 272 270 267 265
29 18 353 316 304 298 291 286 282 283 281 278 269 255 249 244 242 242 235 234 254 267 280 289 296 295 296 293 292 298 300 296 296 299 301 303 303 302 299 295 292 289 285 279 277 275 272 269 267
27 19 1 342 327 314 304 294 294 291 281 278 273 256 253 236 224 227 233 230 241 262 280 294 302 305 307 309 309 314 312 307 306 306 305 305 305 304 301 299 297 294 291 286 281 277 273 269 267
21 16 6 350 339 330 317 306 303 302 293 288 273 255 241 230 225 226 227 228 237 256 277 294 305 309 312 317 318 321 320 313 310 309 309 310 310 307 304 301 299 298 296 294 289 283 278 274 271
14 6 359 350 340 334 329 327 327 323 316 310 293 249 227 220 219 224 226 230 236 259 280 293 302 306 312 319 320 324 325 317 314 314 316 318 318 315 311 307 303 300 299 297 295 291 285 280 276
6 356 350 344 345 338 333 338 340 336 337 345 337 263 225 215 215 227 225 229 239 261 276 289 298 307 313 316 321 329 332 330 328 328 328 327 324 321 319 316 313 311 308 304 299 295 291 286 281
355 348 344 342 345 345 340 346 349 350 351 356 358 343 244 211 199 206 215 226 236 244 265 277 295 312 313 315 325 337 343 341 338 334 331 331 329 328 327 324 321 317 313 309 304 300 295 291 286
342 340 339 340 341 344 348 355 1 4 11 20 29 56 143 193 183 183 193 215 224 226 237 250 285 307 313 320 328 335 337 337 337 335 335 336 335 335 333 329 324 320 316 311 307 302 298 294 290
337 334 338 343 342 342 346 360 9 18 34 37 49 69 94 132 154 161 173 175 182 191 186 220 274 291 315 328 334 339 342 341 343 344 345 343 341 339 337 334 330 325 321 316 311 306 301 296 292
329 336 342 348 346 343 350 19 31 38 50 52 54 65 90 108 125 133 144 152 150 162 185 206 240 284 314 332 341 347 350 351 350 350 349 347 343 341 339 336 332 328 324 319 314 309 305 299 295
319 328 338 345 347 347 359 39 54 61 63 57 56 67 81 95 111 124 136 143 145 185 199 187 210 254 304 327 339 345 350 351 352 351 348 346 343 341 339 338 335 331 326 320 316 312 308 303 298
310 317 332 339 342 345 8 56 71 75 74 65 64 70 76 90 102 109 121 137 152 180 187 190 215 264 308 327 337 344 349 350 350 349 347 346 344 342 340 338 335 332 327 323 318 314 310 305 300
308 307 316 324 334 347 1 54 93 89 84 73 69 67 74 83 90 97 113 134 160 192 206 217 239 277 309 326 334 341 345 346 346 345 344 344 343 341 338 334 332 330 327 324 321 318 314 310 305
301 302 305 311 318 334 340 345 117 102 93 81 76 75 71 73 81 86 99 133 175 233 250 258 272 292 308 319 326 333 337 338 340 340 339 340 339 338 336 334 332 330 329 327 324 321 317 313 309
291 291 290 295 302 315 332 338 222 167 103 87 90 90 75 64 57 55 47 27 242 253 259 265 276 292 304 313 319 324 327 329 332 332 333 333 332 332 333 332 331 330 329 326 325 322 319 315 312
286 288 282 281 288 298 304 316 293 266 241 149 115 77 60 43 26 8 339 312 280 272 274 280 285 295 303 309 314 317 319 322 323 324 326 326 326 327 328 329 329 328 327 325 325 324 322 319 315
279 283 278 275 280 281 281 275 286 286 279 265 243 8 15 6 352 341 327 316 305 293 291 292 293 295 300 306 310 312 314 316 317 317 319 321 321 322 323 324 325 326 325 324 324 323 321 319 317
278 279 273 269 272 271 274 273 285 286 284 284 290 320 328 326 331 330 323 314 306 299 295 294 294 297 301 303 305 307 308 309 310 311 313 315 316 316 317 319 320 322 322 322 322 321 320 319 318
Height
5922 5921 5921 5921 5921 5920 5919 5918 5915 5912 5912 5910 5909 5910 5913 5915 5916 5917 5915 5913 5913 5912 5912 5912 5912 5913 5913 5913 5914 5914 5914 5914 5914 5913 5913 5912 5912 5912 5911 5910 5910 5909 5908 5908 5907 5907 5906 5906 5905
5921 5920 5920 5920 5919 5918 5917 5916 5914 5910 5909 5907 5907 5909 5911 5913 5913 5913 5913 5912 5912 5911 5912 5912 5912 5912 5912 5912 5913 5913 5913 5913 5913 5912 5912 5911 5911 5910 5910 5909 5909 5908 5907 5907 5906 5905 5905 5905 5904
5919 5918 5918 5918 5917 5915 5913 5911 5910 5907 5906 5904 5904 5907 5910 5911 5912 5912 5911 5911 5911 5911 5911 5911 5911 5911 5911 5911 5912 5911 5911 5911 5911 5911 5910 5910 5909 5909 5908 5908 5907 5906 5906 5905 5904 5904 5904 5904 5903
5916 5916 5916 5916 5914 5912 5909 5907 5905 5904 5901 5898 5900 5905 5907 5910 5910 5910 5910 5909 5909 5910 5910 5910 5910 5910 5910 5910 5910 5910 5910 5909 5909 5909 5909 5908 5907 5907 5906 5906 5905 5904 5904 5903 5903 5902 5902 5902 5902
5913 5913 5913 5912 5910 5909 5906 5904 5902 5901 5897 5895 5898 5903 5905 5908 5908 5908 5908 5908 5908 5909 5909 5909 5909 5909 5909 5909 5908 5908 5908 5907 5907 5907 5906 5906 5905 5904 5904 5903 5902 5902 5901 5901 5900 5900 5900 5900 5900
5910 5910 5910 5910 5908 5904 5902 5900 5899 5897 5895 5895 5896 5899 5903 5906 5906 5906 5906 5907 5907 5907 5907 5907 5907 5907 5907 5907 5906 5906 5905 5905 5905 5904 5904 5903 5902 5902 5901 5900 5899 5899 5899 5898 5898 5897 5897 5897 5897
5906 5906 5906 5906 5904 5900 5898 5896 5895 5895 5894 5894 5895 5896 5901 5903 5904 5904 5904 5905 5905 5905 5906 5906 5906 5905 5905 5904 5904 5903 5903 5902 5902 5901 5900 5900 5899 5898 5897 5896 5896 5895 5895 5895 5895 5894 5894 5894 5894
5902 5903 5903 5902 5899 5896 5894 5893 5892 5892 5891 5892 5894 5897 5899 5900 5900 5900 5901 5902 5903 5904 5904 5904 5904 5903 5903 5902 5901 5901 5900 5899 5899 5898 5897 5896 5895 5894 5893 5893 5892 5892 5891 5891 5891 5890 5890 5890 5890
5898 5899 5898 5897 5895 5892 5891 5891 5889 5889 5890 5891 5891 5894 5896 5897 5897 5897 5899 5901 5902 5902 5902 5902 5901 5900 5900 5899 5899 5898 5897 5896 5895 5894 5893 5892 5891 5890 5889 5888 5888 5887 5887 5887 5886 5886 5886 5886 5886
5895 5894 5894 5893 5891 5889 5889 5889 5887 5887 5887 5888 5890 5892 5893 5894 5894 5894 5896 5898 5899 5900 5900 5899 5898 5898 5897 5897 5896 5895 5894 5893 5892 5891 5890 5889 5887 5886 5885 5884 5884 5883 5883 5882 5882 5882 5882 5882 5882
5892 5891 5890 5889 5888 5887 5887 5887 5886 5885 5885 5886 5887 5889 5890 5891 5892 5892 5892 5894 5896 5897 5897 5897 5896 5895 5894 5894 5893 5893 5891 5890 5889 5888 5887 5886 5884 5883 5882 5881 5880 5879 5878 5878 5878 5878 5877 5878 5878
5890 5888 5887 5886 5886 5885 5885 5884 5884 5883 5884 5884 5885 5887 5887 5887 5889 5889 5889 5891 5893 5895 5895 5894 5894 5893 5892 5892 5891 5890 5889 5887 5886 5885 5884 5882 5881 5879 5878 5877 5877 5876 5875 5875 5874 5874 5874 5873 5874
5890 5888 5887 5885 5883 5883 5882 5882 5882 5881 5880 5881 5881 5883 5884 5884 5885 5886 5887 5888 5890 5891 5892 5892 5892 5891 5890 5890 5889 5888 5886 5885 5884 5883 5881 5880 5878 5877 5876 5875 5873 5872 5872 5871 5871 5870 5870 5870 5870
5890 5888 5887 5885 5882 5881 5880 5879 5879 5878 5877 5876 5876 5878 5879 5879 5881 5882 5883 5885 5886 5888 5888 5888 5888 5888 5887 5887 5886 5885 5884 5883 5881 5880 5879 5877 5876 5874 5873 5871 5870 5869 5868 5868 5867 5867 5867 5866 5866
5890 5889 5887 5884 5881 5880 5879 5877 5876 5875 5874 5873 5872 5873 5873 5874 5876 5879 5881 5882 5884 5885 5885 5885 5885 5885 5885 5884 5884 5883 5882 5880 5879 5877 5876 5875 5873 5872 5870 5869 5867 5866 5865 5864 5864 5863 5863 5862 5862
5890 5889 5887 5884 5881 5879 5878 5876 5874 5872 5870 5868 5867 5867 5868 5870 5873 5876 5878 5879 5881 5882 5883 5883 5883 5882 5882 5882 5881 5881 5880 5878 5876 5875 5874 5872 5871 5869 5868 5866 5865 5863 5862 5861 5861 5860 5859 5859 5859
5890 5887 5885 5883 5881 5878 5877 5874 5873 5870 5867 5865 5864 5863 5864 5866 5868 5871 5873 5876 5878 5879 5880 5880 5881 5880 5880 5880 5879 5879 5877 5876 5875 5873 5872 5870 5868 5867 5865 5864 5862 5861 5860 5858 5858 5857 5856 5855 5855
5888 5886 5884 5882 5880 5878 5876 5873 5871 5869 5866 5864 5862 5863 5864 5864 5866 5868 5869 5873 5875 5876 5878 5879 5879 5879 5879 5878 5878 5877 5876 5874 5873 5871 5869 5868 5866 5864 5863 5861 5859 5858 5857 5856 5855 5854 5853 5852 5851
5887 5886 5884 5882 5880 5878 5875 5872 5869 5867 5865 5863 5862 5862 5863 5863 5864 5865 5867 5870 5872 5874 5876 5877 5878 5878 5877 5877 5876 5875 5874 5872 5871 5869 5868 5866 5864 5862 5860 5858 5857 5855 5854 5853 5852 5851 5850 5849 5847
5887 5885 5884 5882 5879 5878 5875 5872 5869 5866 5864 5862 5861 5861 5861 5862 5862 5863 5865 5867 5870 5872 5874 5875 5876 5876 5876 5875 5874 5873 5872 5871 5869 5867 5865 5863 5861 5859 5857 5856 5854 5853 5851 5850 5848 5847 5846 5845 5844
5887 5885 5884 5882 5879 5877 5874 5872 5870 5867 5865 5863 5862 5861 5860 5861 5863 5864 5865 5867 5869 5871 5872 5874 5874 5875 5874 5874 5873 5872 5870 5869 5867 5865 5863 5861 5859 5857 5855 5853 5852 5850 5848 5847 5845 5844 5842 5841 5840
5886 5884 5882 5880 5878 5875 5874 5872 5870 5868 5866 5865 5863 5862 5861 5863 5864 5865 5866 5867 5869 5871 5871 5872 5873 5873 5873 5873 5872 5870 5868 5867 5865 5863 5861 5859 5857 5854 5852 5851 5849 5847 5845 5843 5842 5840 5838 5837 5836
5884 5883 5881 5879 5877 5875 5873 5872 5871 5869 5867 5866 5864 5864 5863 5864 5864 5866 5867 5868 5869 5870 5871 5871 5872 5872 5872 5871 5870 5869 5867 5865 5863 5861 5859 5857 5855 5852 5850 5848 5846 5844 5842 5840 5838 5836 5834 5832 5831
5882 5881 5880 5879 5877 5875 5873 5873 5872 5869 5868 5867 5865 5865 5865 5865 5865 5866 5867 5868 5869 5869 5870 5870 5870 5870 5870 5869 5868 5866 5865 5863 5861 5859 5857 5855 5853 5850 5847 5845 5843 5840 5838 5836 5834 5831 5829 5827 5825
5880 5880 5879 5877 5876 5874 5873 5872 5872 5870 5868 5867 5867 5867 5866 5866 5866 5866 5867 5867 5868 5868 5869 5869 5869 5868 5868 5867 5866 5864 5862 5861 5859 5857 5855 5853 5850 5848 5845 5843 5840 5837 5835 5832 5829 5826 5824 5821 5819
5878 5877 5877 5875 5873 5873 5872 5872 5872 5870 5868 5867 5867 5867 5867 5866 5866 5866 5867 5867 5867 5867 5867 5867 5867 5866 5865 5864 5863 5862 5860 5858 5856 5854 5852 5850 5848 5845 5843 5840 5837 5834 5831 5828 5824 5821 5818 5815 5812
5876 5875 5874 5873 5871 5871 5870 5870 5870 5869 5867 5867 5867 5867 5867 5866 5866 5866 5866 5866 5866 5865 5865 5865 5864 5864 5863 5862 5861 5859 5858 5856 5854 5852 5850 5847 5845 5842 5839 5837 5833 5830 5827 5823 5819 5816 5812 5809 5805
5873 5873 5872 5870 5869 5868 5868 5868 5869 5868 5866 5866 5866 5866 5865 5865 5865 5864 5864 5864 5863 5863 5863 5862 5862 5861 5860 5859 5858 5856 5855 5853 5851 5849 5847 5844 5841 5839 5836 5832 5829 5826 5822 5818 5814 5810 5805 5801 5797
5870 5869 5868 5867 5866 5866 5866 5868 5866 5865 5864 5864 5864 5864 5863 5862 5862 5861 5861 5861 5860 5860 5860 5859 5859 5858 5857 5856 5855 5853 5851 5849 5847 5845 5843 5840 5837 5834 5831 5828 5824 5820 5816 5812 5808 5803 5799 5794 5790
5866 5865 5864 5864 5864 5863 5862 5866 5863 5862 5862 5862 5862 5861 5860 5860 5859 5859 5858 5858 5858 5857 5857 5856 5855 5855 5854 5852 5851 5849 5847 5845 5843 5841 5838 5835 5833 5830 5826 5822 5818 5814 5810 5806 5801 5796 5792 5787 5782